This is the latest recevied weather packets stored in our database for station/object W1MDM-10. If no packets are shown the sender has not sent any weather packets the latest 10 day(s).
| Time | Temp. | Humidity | Pressure | Rain* | Wind** | Luminosity | Snow |
|---|---|---|---|---|---|---|---|
| 1787932545 | 30.56° C | 71% | 1017.5 hPa | 0 mm | - | - | - |
| 1787932245 | 30.56° C | 70% | 1017.6 hPa | 0 mm | - | - | - |
| 1787931945 | 30.56° C | 72% | 1017.6 hPa | 0 mm | - | - | - |
| 1787931645 | 30° C | 71% | 1017.4 hPa | 0 mm | - | - | - |
| 1787931345 | 30° C | 74% | 1017.5 hPa | 0 mm | - | - | - |
| 1787931045 | 29.44° C | 76% | 1017.4 hPa | 0 mm | - | - | - |
| 1787930745 | 29.44° C | 74% | 1017.3 hPa | 0 mm | - | - | - |
| 1787930445 | 28.89° C | 76% | 1017.2 hPa | 0 mm | - | - | - |
| 1787930145 | 28.89° C | 78% | 1017.2 hPa | 0 mm | - | - | - |
| 1787929845 | 28.33° C | 80% | 1017.3 hPa | 0 mm | - | - | - |
| 1787929545 | 27.78° C | 81% | 1017.2 hPa | 0 mm | - | - | - |
| 1787929245 | 27.22° C | 81% | 1017.2 hPa | 0 mm | - | - | - |
| 1787928945 | 27.22° C | 81% | 1017.2 hPa | 0 mm | - | - | - |
| 1787928645 | 27.22° C | 80% | 1017.3 hPa | 0 mm | - | - | - |
| 1787928345 | 26.67° C | 83% | 1017.3 hPa | 0 mm | - | - | - |
| 1787928045 | 26.67° C | 83% | 1017.3 hPa | 0 mm | - | - | - |
| 1787927745 | 26.67° C | 85% | 1017.1 hPa | 0 mm | - | - | - |
| 1787927445 | 26.11° C | 87% | 1017.3 hPa | 0 mm | - | - | - |
| 1787927145 | 26.11° C | 87% | 1017.3 hPa | 0 mm | - | - | - |
| 1787926845 | 26.11° C | 88% | 1017.3 hPa | 0 mm | - | - | - |
| 1787926545 | 25.56° C | 88% | 1017.2 hPa | 0 mm | - | - | - |
| 1787926245 | 25.56° C | 90% | 1017.1 hPa | 0 mm | - | - | - |
| 1787925945 | 25° C | 89% | 1017.1 hPa | 0 mm | - | - | - |
| 1787925645 | 25° C | 91% | 1017 hPa | 0 mm | - | - | - |
| 1787925345 | 25° C | 91% | 1017.1 hPa | 0 mm | - | - | - |
* Rain latest hour (hover to see other rain measurements)
** Current wind speed in m/s (hover to see current wind gust speed)